Other Public Products
Issued by NWS Charleston, SC

Current Version | Previous Version | Graphics & Text | Print | Product List | Glossary On
Versions: 1 2 3 4 5 6 7 8 9 10 11 12 13 14 15 16 17 18 19 20 21 22 23 24 25 26 27 28 29 30 31 32 33 34 35 36 37 38 39 40 41 42 43 44 45 46 47 48 49 50
627
FPUS82 KCHS 221627
OPUCHS

TEST...KCHS/KSAV Gateway Observations...TEST
National Weather Service Charleston SC
1100 AM EST WED NOV 22 2017

NOTE: "fair" indicates few or no clouds below 12,000 feet with no
significant weather and/or obstructions to visibility.

SCZ050-WAZ558-NCZ071-TXZ119-213-PAZ071-DCZ001-FLZ074-172-MI076-
NYZ176-178-MAZ016-IL014-TNZ027-NJZ106-GAZ044-MD014-221700-

...Gateway Observations for Charleston International...

CITY           SKY/WX    TMP DP  RH WIND       PRES   REMARKS
Chas Airport   PTSUNNY   63  58  83 N9        30.03F
Seattle        MOCLDY    59  56  89 S5        29.97S
Charlotte      MOSUNNY   61  46  57 N10       30.06R
Dallas DFW     PTSUNNY   46  21  37 N12       30.38S
Dallas Love    PTSUNNY   46  21  37 N9        30.40S
Philladelphia  CLOUDY    55  44  66 NW15G21   29.93S
Wash National  MOSUNNY   58  36  43 N24G31    29.99R
Baltimore      MOSUNNY   56  34  43 NW22G32   29.96R
Miami          MOSUNNY   82  67  60 CALM      29.94F
Detroit        CLOUDY    33  16  49 N12       30.29R WCI  24
Newark         CLOUDY    50  47  89 W8        29.90R
Laguardia      CLOUDY    53  45  74 N6        29.88F
J F K          CLOUDY    53  47  79 N7        29.89S
Boston Logan   LGT RAIN  51  51 100 SE7       29.86F VSB 1
Ft. Lauderdale MOSUNNY   81  67  62 CALM      29.93F
Chicago O`Hare MOSUNNY   29  13  51 N3        30.37R
Chicago Midway MOSUNNY   29  14  53 NW6       30.37S WCI  23
Houston Bush   MOSUNNY   64  51  62 N14       30.26R
Houston Hobby  MOSUNNY   64  53  67 N15       30.24R
Nashville      MOSUNNY   40  25  55 NE10      30.32R WCI  33
Atlanta        CLOUDY    58  40  51 NW13      30.10R

$$

GAZ044-118-TXZ119-213-NCZ071-DCZ001-MDZ014-506-PAZ021-071-NJZ106-
NYZ176-178-MAZ106-OHZ011-021-055-MIZ076-KYZ091-ILZ014-INZ047-
MNZ060-ONZ431-221700-

...Gateway Observations for Savannah International...

CITY           SKY/WX    TMP DP  RH WIND       PRES   REMARKS
Savannah Arpt  CLOUDY    62  59  90 NW7       30.04R
Atlanta        CLOUDY    58  40  51 NW13      30.10R
Charlotte      MOSUNNY   61  46  57 N10       30.06R
Dallas DFW     PTSUNNY   46  21  37 N12       30.38S
Houston Bush   MOSUNNY   64  51  62 N14       30.26R
Wash National  MOSUNNY   58  36  43 N24G31    29.99R
Wash Dulles    MOSUNNY   54  34  46 NW21G35   30.02R
Baltimore      MOSUNNY   56  34  43 NW22G32   29.96R
Philadelphia   CLOUDY    55  44  66 NW15G21   29.93S
Newark         CLOUDY    50  47  89 W8        29.90R
Laguardia      CLOUDY    53  45  74 N6        29.88F
J F K          CLOUDY    53  47  79 N7        29.89S
Boston         LGT RAIN  51  51 100 SE7       29.86F VSB 1
Pittsburg      CLOUDY    34  29  82 NW12      30.18R WCI  25
Akron          CLOUDY    33  23  66 NW10      30.21R WCI  25
Cleveland      CLOUDY    34  22  61 NW10      30.27R WCI  26
Cincinnati     PTSUNNY   35  27  72 N3        30.30R
Columbus       CLOUDY    35  23  61 NW12      30.28R WCI  27
Detroit        CLOUDY    33  16  49 N12       30.29R WCI  24
Chicago O`Hare MOSUNNY   29  13  51 N3        30.37R
Minneapolis    PTSUNNY   21  12  68 S7        30.30F WCI  12
Indianapolis   SUNNY     34  23  64 N5        30.35R WCI  30
Toronto Canada PTSUNNY   32  14  47 NW17      30.16R WCI  21

$$




USA.gov is the U.S. government's official web portal to all federal, state and local government web resources and services.